Location: Engelmannsreuth
(49.8125°N, 11.6497°E)
Time: 15:21:22
(UTC+00:00)

Cosmos 1140 Rocket - Pass Details

Date: 17 February 2020
Orbit: 745 x 767 km, 74.1° (Epoch: 28 March)

Event Time Altitude Azimuth Distance (km) Brightness Sun altitude
Rises 04:53:12 0° 191° (S) 3,218 6.6 -14.8°
Reaches altitude 10° 04:55:35 10° 188° (S) 2,298 5.9 -14.4°
Maximum altitude 05:00:44 63° 109° (ESE) 859 4.0 -13.6°
Drops below altitude 10° 05:05:55 10° 29° (NNE) 2,317 6.3 -12.7°
Sets 05:08:19 0° 26° (NNE) 3,247 7.1 -12.3°
